Погода в Юбилейном

Россия / Республика Марий Эл     56°44′55″N   48°12′57″E
темп.,
°C
ветер,
м/с
пор.,
м/с
влажн.,
%
обл.,
%
осадки,
мм/ч
давл.,
гПа
погр.,
м
20 апреля, вт
вт2000:00−1в411580 0.0 1032253
03:00−1в412540 0.0 1032266
06:00+1в511490 0.0 1032327
09:00+6вюв68400 0.0 1032908
12:00+9юв68330 0.0 10311480
15:00+9юв79300 0.0 10291514
18:00+7вюв510400 0.0 1029375
21:00+3вюв5144756 0.0 1028363
21 апреля, ср
ср2100:00+3юв61550100 0.0 1026452
03:00+3юв71649100 0.0 1025565
06:00+3юв91848100 0.0 1023744
09:00+5юв91746100 0.0 1022966
12:00+2юв101977100 1.3 1021883
15:00+1ююв101997100 5.9 1021873
18:00+1ююв91897100 2.1 1019771
21:00+2ююв91795100 2.7 1019726
22 апреля, чт
чт2200:00+2ююв81595100 0.3 1018666
03:00+3ююв71496100 0.3 1019492
06:00+3ююв61197100 0.0 1020432
09:00+4ююв61295100 0.0 1021487
12:00+7ю61089100 0.0 1021726
15:00+8ююв6108592 0.1 1021677
18:00+8ююв6129095 1.1 1021588
21:00+6ююв4119599 1.7 1022328
23 апреля, пт
пт2300:00+6ю3798100 0.2 1022248
03:00+6ю349778 0.5 1023159
06:00+6ююз239166 0.0 1023270
09:00+10ююз33705 0.0 1024604
12:00+13ююз345556 0.0 10231500
15:00+14ююз235566 0.3 10221283
18:00+12юв47715 0.4 1022210
21:00+8юв48885 0.4 1022140
24 апреля, сб
сб2400:00+6юв499124 0.0 1022167
03:00+5юв489280 0.0 1021133
06:00+6юв41087100 0.0 1020289
09:00+9юв4674100 0.0 1019567
12:00+12в4456100 0.0 10171324
15:00+12всв5551100 0.0 10161599
18:00+9в5867100 0.0 1015504
21:00+6в3782100 0.0 1014160